Time,TemperatureF,DewpointF,PressureIn,WindDirection,WindDirectionDegrees,WindSpeedMPH,WindSpeedGustMPH,Humidity,HourlyPrecipIn,Conditions,Clouds,dailyrainin,SoftwareType,DateUTC
2013-01-18 00:01:00,19.0,6.6,30.09,NW,309,2.0,8.0,58,0.00,,,0.00,meteohub,2013-01-18 05:01:00,
2013-01-18 00:02:00,19.2,6.8,30.09,NW,316,4.0,8.0,58,0.00,,,0.00,meteohub,2013-01-18 05:02:00,
2013-01-18 00:03:00,19.4,7.3,30.09,NW,307,4.0,8.0,59,0.00,,,0.00,meteohub,2013-01-18 05:03:00,
2013-01-18 00:08:00,19.0,7.2,30.09,North,6,4.0,8.0,59,0.00,,,0.00,meteohub,2013-01-18 05:08:00,
2013-01-18 00:13:00,19.0,7.2,30.09,NNW,332,6.0,8.0,59,0.00,,,0.00,meteohub,2013-01-18 05:13:00,
2013-01-18 00:18:00,18.5,6.3,30.09,NNW,333,5.0,8.0,58,0.00,,,0.00,meteohub,2013-01-18 05:18:00,
2013-01-18 00:23:00,18.1,5.9,30.09,NNW,341,4.0,8.0,58,0.00,,,0.00,meteohub,2013-01-18 05:23:00,
2013-01-18 00:28:00,18.0,5.7,30.09,North,357,3.0,6.0,58,0.00,,,0.00,meteohub,2013-01-18 05:28:00,
2013-01-18 00:33:00,18.3,6.4,30.09,NW,308,3.0,6.0,59,0.00,,,0.00,meteohub,2013-01-18 05:33:00,
2013-01-18 00:38:00,17.8,5.5,30.12,WNW,296,5.0,6.0,58,0.00,,,0.00,meteohub,2013-01-18 05:38:00,
2013-01-18 00:43:00,17.2,5.0,30.12,NNW,335,5.0,8.0,58,0.00,,,0.00,meteohub,2013-01-18 05:43:00,
2013-01-18 00:48:00,17.1,4.5,30.12,NNW,330,6.0,8.0,57,0.00,,,0.00,meteohub,2013-01-18 05:48:00,
2013-01-18 00:53:00,17.2,5.0,30.12,NW,319,6.0,11.0,58,0.00,,,0.00,meteohub,2013-01-18 05:53:00,
2013-01-18 00:58:00,16.9,4.6,30.12,NW,316,9.0,11.0,58,0.00,,,0.00,meteohub,2013-01-18 05:58:00,
2013-01-18 01:03:00,16.5,3.9,30.12,NW,321,6.0,11.0,57,0.00,,,0.00,meteohub,2013-01-18 06:03:00,
2013-01-18 01:08:00,16.2,3.6,30.12,North,353,6.0,11.0,57,0.00,,,0.00,meteohub,2013-01-18 06:08:00,
2013-01-18 01:13:00,16.0,3.0,30.12,NW,321,4.0,9.0,56,0.00,,,0.00,meteohub,2013-01-18 06:13:00,
2013-01-18 01:18:00,16.5,3.9,30.12,NNW,333,6.0,8.0,57,0.00,,,0.00,meteohub,2013-01-18 06:18:00,
2013-01-18 01:23:00,16.7,4.5,30.12,NNW,345,8.0,8.0,58,0.00,,,0.00,meteohub,2013-01-18 06:23:00,
2013-01-18 01:28:00,16.7,4.5,30.12,WNW,293,3.0,8.0,58,0.00,,,0.00,meteohub,2013-01-18 06:28:00,
2013-01-18 01:33:00,16.5,4.3,30.12,NNW,338,4.0,8.0,58,0.00,,,0.00,meteohub,2013-01-18 06:33:00,
2013-01-18 01:38:00,16.7,4.5,30.12,WNW,294,0.0,8.0,58,0.00,,,0.00,meteohub,2013-01-18 06:38:00,
2013-01-18 01:44:00,16.9,5.0,30.12,WNW,302,5.0,8.0,59,0.00,,,0.00,meteohub,2013-01-18 06:44:00,
2013-01-18 01:49:00,16.5,4.3,30.12,NW,315,3.0,9.0,58,0.00,,,0.00,meteohub,2013-01-18 06:49:00,
2013-01-18 01:54:00,16.7,4.8,30.12,NW,314,4.0,9.0,59,0.00,,,0.00,meteohub,2013-01-18 06:54:00,
2013-01-18 01:59:00,16.7,4.8,30.12,NW,325,3.0,8.0,59,0.00,,,0.00,meteohub,2013-01-18 06:59:00,
2013-01-18 02:04:00,16.7,4.8,30.12,NNW,335,5.0,8.0,59,0.00,,,0.00,meteohub,2013-01-18 07:04:00,
2013-01-18 02:09:00,16.5,4.6,30.14,NW,319,6.0,8.0,59,0.00,,,0.00,meteohub,2013-01-18 07:09:00,
2013-01-18 02:14:00,16.5,4.6,30.14,NW,323,6.0,9.0,59,0.00,,,0.00,meteohub,2013-01-18 07:14:00,
2013-01-18 02:19:00,16.2,3.9,30.14,NNW,330,4.0,8.0,58,0.00,,,0.00,meteohub,2013-01-18 07:19:00,
2013-01-18 02:24:00,16.3,4.1,30.14,NW,305,3.0,8.0,58,0.00,,,0.00,meteohub,2013-01-18 07:24:00,
2013-01-18 02:29:00,16.0,3.7,30.14,NW,319,4.0,8.0,58,0.00,,,0.00,meteohub,2013-01-18 07:29:00,
2013-01-18 02:34:00,16.2,3.9,30.14,NNW,331,4.0,6.0,58,0.00,,,0.00,meteohub,2013-01-18 07:34:00,
2013-01-18 02:39:00,15.4,3.4,30.14,NW,304,5.0,6.0,58,0.00,,,0.00,meteohub,2013-01-18 07:39:00,
2013-01-18 02:44:00,15.6,3.6,30.14,NW,324,3.0,8.0,58,0.00,,,0.00,meteohub,2013-01-18 07:44:00,
2013-01-18 02:49:00,15.4,3.4,30.14,NNW,334,6.0,8.0,58,0.00,,,0.00,meteohub,2013-01-18 07:49:00,
2013-01-18 02:54:00,15.1,2.7,30.14,NNW,339,3.0,6.0,57,0.00,,,0.00,meteohub,2013-01-18 07:54:00,
2013-01-18 02:59:00,14.9,2.5,30.14,NW,316,5.0,6.0,57,0.00,,,0.00,meteohub,2013-01-18 07:59:00,
2013-01-18 03:04:00,15.1,2.7,30.14,NW,319,0.0,6.0,57,0.00,,,0.00,meteohub,2013-01-18 08:04:00,
2013-01-18 03:09:00,15.1,2.7,30.14,NW,319,3.0,6.0,57,0.00,,,0.00,meteohub,2013-01-18 08:09:00,
2013-01-18 03:14:00,14.9,2.5,30.14,NW,320,3.0,5.0,57,0.00,,,0.00,meteohub,2013-01-18 08:14:00,
2013-01-18 03:19:00,14.7,2.3,30.14,NW,320,0.0,4.0,57,0.00,,,0.00,meteohub,2013-01-18 08:19:00,
2013-01-18 03:24:00,14.5,2.1,30.14,NNW,335,4.0,5.0,57,0.00,,,0.00,meteohub,2013-01-18 08:24:00,
2013-01-18 03:29:00,14.7,2.3,30.14,NNW,335,0.0,5.0,57,0.00,,,0.00,meteohub,2013-01-18 08:29:00,
2013-01-18 03:34:00,14.9,2.8,30.14,NNW,335,0.0,5.0,58,0.00,,,0.00,meteohub,2013-01-18 08:34:00,
2013-01-18 03:39:00,14.9,2.8,30.14,NNW,333,0.0,5.0,58,0.00,,,0.00,meteohub,2013-01-18 08:39:00,
2013-01-18 03:44:00,14.5,2.1,30.14,NNW,335,0.0,0.0,57,0.00,,,0.00,meteohub,2013-01-18 08:44:00,
2013-01-18 03:49:00,14.2,1.8,30.14,NNW,335,0.0,0.0,57,0.00,,,0.00,meteohub,2013-01-18 08:49:00,
2013-01-18 03:54:00,14.2,1.8,30.14,NNW,335,0.0,0.0,57,0.00,,,0.00,meteohub,2013-01-18 08:54:00,
2013-01-18 03:59:00,14.2,1.8,30.14,NNW,335,0.0,0.0,57,0.00,,,0.00,meteohub,2013-01-18 08:59:00,
2013-01-18 04:04:00,13.8,1.8,30.14,NNW,335,0.0,0.0,58,0.00,,,0.00,meteohub,2013-01-18 09:04:00,
2013-01-18 04:09:00,14.0,1.9,30.14,NNW,335,0.0,0.0,58,0.00,,,0.00,meteohub,2013-01-18 09:09:00,
2013-01-18 04:14:00,14.0,1.9,30.14,NNW,335,2.0,4.0,58,0.00,,,0.00,meteohub,2013-01-18 09:14:00,
2013-01-18 04:19:00,14.0,1.9,30.14,NW,324,5.0,5.0,58,0.00,,,0.00,meteohub,2013-01-18 09:19:00,
2013-01-18 04:24:00,13.6,1.6,30.14,NW,315,0.0,6.0,58,0.00,,,0.00,meteohub,2013-01-18 09:24:00,
2013-01-18 04:29:00,13.6,1.6,30.14,NW,316,4.0,6.0,58,0.00,,,0.00,meteohub,2013-01-18 09:29:00,
2013-01-18 04:34:00,13.3,1.2,30.14,NNW,332,5.0,6.0,58,0.00,,,0.00,meteohub,2013-01-18 09:34:00,
2013-01-18 04:39:00,13.3,1.2,30.14,NNW,329,6.0,6.0,58,0.00,,,0.00,meteohub,2013-01-18 09:39:00,
2013-01-18 04:44:00,13.3,1.2,30.14,NW,307,5.0,9.0,58,0.00,,,0.00,meteohub,2013-01-18 09:44:00,
2013-01-18 04:49:00,13.1,1.0,30.14,NW,319,6.0,9.0,58,0.00,,,0.00,meteohub,2013-01-18 09:49:00,
2013-01-18 04:54:00,13.5,1.4,30.17,NNW,329,0.0,9.0,58,0.00,,,0.00,meteohub,2013-01-18 09:54:00,
2013-01-18 04:59:00,13.3,1.2,30.17,NW,320,4.0,9.0,58,0.00,,,0.00,meteohub,2013-01-18 09:59:00,
2013-01-18 05:04:00,13.3,1.2,30.17,NW,319,3.0,9.0,58,0.00,,,0.00,meteohub,2013-01-18 10:04:00,
2013-01-18 05:09:00,13.5,1.4,30.17,NNW,328,4.0,6.0,58,0.00,,,0.00,meteohub,2013-01-18 10:09:00,
2013-01-18 05:14:00,13.3,1.2,30.17,NNW,339,4.0,6.0,58,0.00,,,0.00,meteohub,2013-01-18 10:14:00,
2013-01-18 05:19:00,12.9,0.9,30.17,WNW,302,4.0,6.0,58,0.00,,,0.00,meteohub,2013-01-18 10:19:00,
2013-01-18 05:24:00,12.9,0.9,30.17,NNW,328,6.0,8.0,58,0.00,,,0.00,meteohub,2013-01-18 10:24:00,
2013-01-18 05:29:00,12.7,0.7,30.17,NNW,327,0.0,8.0,58,0.00,,,0.00,meteohub,2013-01-18 10:29:00,
2013-01-18 05:34:00,13.1,1.0,30.17,West,267,4.0,8.0,58,0.00,,,0.00,meteohub,2013-01-18 10:34:00,
2013-01-18 05:39:00,12.7,0.7,30.17,WNW,287,7.0,8.0,58,0.00,,,0.00,meteohub,2013-01-18 10:39:00,
2013-01-18 05:44:00,12.6,0.5,30.17,NW,320,4.0,9.0,58,0.00,,,0.00,meteohub,2013-01-18 10:44:00,
2013-01-18 05:49:00,12.6,0.5,30.17,NW,325,3.0,9.0,58,0.00,,,0.00,meteohub,2013-01-18 10:49:00,
2013-01-18 05:54:00,12.6,0.5,30.17,NW,305,0.0,9.0,58,0.00,,,0.00,meteohub,2013-01-18 10:54:00,
2013-01-18 05:59:00,12.2,0.3,30.17,NW,319,0.0,9.0,58,0.00,,,0.00,meteohub,2013-01-18 10:59:00,
2013-01-18 06:04:00,12.0,0.1,30.17,NW,319,0.0,6.0,58,0.00,,,0.00,meteohub,2013-01-18 11:04:00,
2013-01-18 06:09:00,11.8,0.0,30.17,NNW,328,5.0,6.0,58,0.00,,,0.00,meteohub,2013-01-18 11:09:00,
2013-01-18 06:14:00,11.8,0.0,30.17,NW,304,0.0,8.0,58,0.00,,,0.00,meteohub,2013-01-18 11:14:00,
2013-01-18 06:19:00,11.8,0.0,30.17,NW,304,0.0,8.0,58,0.00,,,0.00,meteohub,2013-01-18 11:19:00,
2013-01-18 06:24:00,11.7,-0.2,30.20,WNW,290,0.0,8.0,58,0.00,,,0.00,meteohub,2013-01-18 11:24:00,
2013-01-18 06:29:00,11.7,-0.2,30.20,WNW,302,0.0,4.0,58,0.00,,,0.00,meteohub,2013-01-18 11:29:00,
2013-01-18 06:34:00,11.3,-0.6,30.20,NW,307,0.0,4.0,58,0.00,,,0.00,meteohub,2013-01-18 11:34:00,
2013-01-18 06:39:00,11.1,-0.8,30.20,NW,305,3.0,4.0,58,0.00,,,0.00,meteohub,2013-01-18 11:39:00,
2013-01-18 06:44:00,10.9,-0.9,30.20,NW,326,0.0,5.0,58,0.00,,,0.00,meteohub,2013-01-18 11:44:00,
2013-01-18 06:49:00,10.9,-0.9,30.20,NW,326,0.0,5.0,58,0.00,,,0.00,meteohub,2013-01-18 11:49:00,
2013-01-18 06:54:00,10.8,-1.1,30.23,NW,316,3.0,5.0,58,0.00,,,0.00,meteohub,2013-01-18 11:54:00,
2013-01-18 06:59:00,10.9,-0.9,30.23,NW,326,0.0,4.0,58,0.00,,,0.00,meteohub,2013-01-18 11:59:00,
2013-01-18 07:04:00,11.1,-0.8,30.23,NNW,348,4.0,4.0,58,0.00,,,0.00,meteohub,2013-01-18 12:04:00,
2013-01-18 07:09:00,11.1,-0.8,30.23,North,353,0.0,8.0,58,0.00,,,0.00,meteohub,2013-01-18 12:09:00,
2013-01-18 07:14:00,11.1,-0.8,30.23,WNW,303,6.0,8.0,58,0.00,,,0.00,meteohub,2013-01-18 12:14:00,
2013-01-18 07:19:00,11.1,-0.8,30.23,WNW,289,0.0,8.0,58,0.00,,,0.00,meteohub,2013-01-18 12:19:00,
2013-01-18 07:24:00,11.3,-0.6,30.23,NW,313,0.0,8.0,58,0.00,,,0.00,meteohub,2013-01-18 12:24:00,
2013-01-18 07:29:00,11.3,-0.6,30.23,NW,308,0.0,8.0,58,0.00,,,0.00,meteohub,2013-01-18 12:29:00,
2013-01-18 07:34:00,11.1,-0.8,30.23,NW,318,3.0,8.0,58,0.00,,,0.00,meteohub,2013-01-18 12:34:00,
2013-01-18 07:39:00,11.3,-0.6,30.26,NNW,329,6.0,8.0,58,0.00,,,0.00,meteohub,2013-01-18 12:39:00,
2013-01-18 07:44:00,11.1,-0.8,30.26,NNW,330,5.0,8.0,58,0.00,,,0.00,meteohub,2013-01-18 12:44:00,
2013-01-18 07:49:00,10.8,-1.1,30.26,NW,313,5.0,8.0,58,0.00,,,0.00,meteohub,2013-01-18 12:49:00,
2013-01-18 07:54:00,10.9,-0.9,30.23,WNW,294,4.0,9.0,58,0.00,,,0.00,meteohub,2013-01-18 12:54:00,
2013-01-18 07:59:00,11.1,-0.8,30.23,NW,320,4.0,9.0,58,0.00,,,0.00,meteohub,2013-01-18 12:59:00,
2013-01-18 08:04:00,10.9,-0.9,30.23,WNW,298,4.0,9.0,58,0.00,,,0.00,meteohub,2013-01-18 13:04:00,
2013-01-18 08:09:00,10.9,-0.9,30.26,NNW,329,3.0,9.0,58,0.00,,,0.00,meteohub,2013-01-18 13:09:00,
2013-01-18 08:14:00,10.8,-1.1,30.26,NNW,339,6.0,9.0,58,0.00,,,0.00,meteohub,2013-01-18 13:14:00,
2013-01-18 08:19:00,10.9,-0.9,30.26,NW,313,8.0,9.0,58,0.00,,,0.00,meteohub,2013-01-18 13:19:00,
2013-01-18 08:24:00,11.1,-0.8,30.26,NW,326,8.0,9.0,58,0.00,,,0.00,meteohub,2013-01-18 13:24:00,
2013-01-18 08:29:00,10.8,-1.1,30.26,NW,304,3.0,9.0,58,0.00,,,0.00,meteohub,2013-01-18 13:29:00,
2013-01-18 08:34:00,10.9,-0.9,30.26,West,264,2.0,9.0,58,0.00,,,0.00,meteohub,2013-01-18 13:34:00,
2013-01-18 08:39:00,11.1,-0.8,30.26,NNW,338,6.0,9.0,58,0.00,,,0.00,meteohub,2013-01-18 13:39:00,
2013-01-18 08:44:00,11.1,-0.8,30.26,NW,319,5.0,11.0,58,0.00,,,0.00,meteohub,2013-01-18 13:44:00,
2013-01-18 08:49:00,10.9,-0.9,30.26,NW,318,8.0,11.0,58,0.00,,,0.00,meteohub,2013-01-18 13:49:00,
2013-01-18 08:54:00,11.1,-0.8,30.29,NNW,328,0.0,11.0,58,0.00,,,0.00,meteohub,2013-01-18 13:54:00,
2013-01-18 08:59:00,11.1,-0.8,30.29,NNW,339,4.0,11.0,58,0.00,,,0.00,meteohub,2013-01-18 13:59:00,
2013-01-18 09:04:00,11.1,-0.8,30.29,WNW,294,2.0,11.0,58,0.00,,,0.00,meteohub,2013-01-18 14:04:00,
2013-01-18 09:09:00,11.3,-0.6,30.29,NNW,328,6.0,11.0,58,0.00,,,0.00,meteohub,2013-01-18 14:09:00,
2013-01-18 09:14:00,11.7,-0.2,30.29,WNW,303,0.0,8.0,58,0.00,,,0.00,meteohub,2013-01-18 14:14:00,
2013-01-18 09:19:00,11.7,-0.2,30.29,WNW,303,0.0,8.0,58,0.00,,,0.00,meteohub,2013-01-18 14:19:00,
2013-01-18 09:24:00,11.8,0.0,30.29,SW,231,0.0,8.0,58,0.00,,,0.00,meteohub,2013-01-18 14:24:00,
2013-01-18 09:29:00,11.8,0.0,30.29,WNW,288,4.0,8.0,58,0.00,,,0.00,meteohub,2013-01-18 14:29:00,
2013-01-18 09:34:00,11.8,0.0,30.29,NW,316,3.0,6.0,58,0.00,,,0.00,meteohub,2013-01-18 14:34:00,
2013-01-18 09:39:00,11.8,0.0,30.29,NNW,332,4.0,6.0,58,0.00,,,0.00,meteohub,2013-01-18 14:39:00,
2013-01-18 09:44:00,12.0,0.1,30.29,NW,326,3.0,8.0,58,0.00,,,0.00,meteohub,2013-01-18 14:44:00,
2013-01-18 09:49:00,12.0,0.1,30.29,NW,312,4.0,8.0,58,0.00,,,0.00,meteohub,2013-01-18 14:49:00,
2013-01-18 09:54:00,12.2,0.3,30.29,NNW,328,6.0,8.0,58,0.00,,,0.00,meteohub,2013-01-18 14:54:00,
2013-01-18 09:59:00,12.2,0.3,30.29,NW,322,9.0,9.0,58,0.00,,,0.00,meteohub,2013-01-18 14:59:00,
2013-01-18 10:04:00,12.2,0.3,30.29,NW,311,5.0,9.0,58,0.00,,,0.00,meteohub,2013-01-18 15:04:00,
2013-01-18 10:09:00,12.2,0.3,30.29,WNW,295,0.0,9.0,58,0.00,,,0.00,meteohub,2013-01-18 15:09:00,
2013-01-18 10:14:00,12.6,0.5,30.29,NNW,343,6.0,10.0,58,0.00,,,0.00,meteohub,2013-01-18 15:14:00,
2013-01-18 10:20:00,12.6,0.5,30.29,NW,324,4.0,10.0,58,0.00,,,0.00,meteohub,2013-01-18 15:20:00,
2013-01-18 10:25:00,12.6,0.5,30.29,SW,215,4.0,10.0,58,0.00,,,0.00,meteohub,2013-01-18 15:25:00,
2013-01-18 10:30:00,12.6,0.5,30.29,NW,321,4.0,10.0,58,0.00,,,0.00,meteohub,2013-01-18 15:30:00,
2013-01-18 10:35:00,12.7,0.7,30.29,NNW,327,7.0,10.0,58,0.00,,,0.00,meteohub,2013-01-18 15:35:00,
2013-01-18 10:40:00,12.7,0.7,30.29,WNW,295,5.0,10.0,58,0.00,,,0.00,meteohub,2013-01-18 15:40:00,
2013-01-18 10:45:00,12.6,0.5,30.29,WNW,302,6.0,13.0,58,0.00,,,0.00,meteohub,2013-01-18 15:45:00,
2013-01-18 10:50:00,12.7,0.7,30.29,NNW,337,6.0,13.0,58,0.00,,,0.00,meteohub,2013-01-18 15:50:00,
2013-01-18 10:55:00,12.9,0.9,30.29,NNW,327,8.0,11.0,58,0.00,,,0.00,meteohub,2013-01-18 15:55:00,
2013-01-18 11:00:00,13.1,1.0,30.29,NNW,332,8.0,17.0,58,0.00,,,0.00,meteohub,2013-01-18 16:00:00,
2013-01-18 11:05:00,13.3,1.2,30.29,WSW,250,4.0,17.0,58,0.00,,,0.00,meteohub,2013-01-18 16:05:00,
2013-01-18 11:10:00,13.3,1.2,30.29,SW,231,5.0,17.0,58,0.00,,,0.00,meteohub,2013-01-18 16:10:00,
2013-01-18 11:15:00,13.3,1.2,30.29,WNW,299,11.0,15.0,58,0.00,,,0.00,meteohub,2013-01-18 16:15:00,
2013-01-18 11:20:00,13.5,1.4,30.29,NW,321,5.0,15.0,58,0.00,,,0.00,meteohub,2013-01-18 16:20:00,
2013-01-18 11:25:00,13.6,1.6,30.29,NW,310,8.0,15.0,58,0.00,,,0.00,meteohub,2013-01-18 16:25:00,
2013-01-18 11:30:00,13.6,1.6,30.29,NNW,330,6.0,15.0,58,0.00,,,0.00,meteohub,2013-01-18 16:30:00,
2013-01-18 11:35:00,13.6,1.6,30.29,NNW,327,8.0,15.0,58,0.00,,,0.00,meteohub,2013-01-18 16:35:00,
2013-01-18 11:40:00,13.8,1.8,30.29,NW,324,10.0,15.0,58,0.00,,,0.00,meteohub,2013-01-18 16:40:00,
2013-01-18 11:45:00,14.0,0.0,30.29,WNW,290,6.0,15.0,53,0.00,,,0.00,meteohub,2013-01-18 16:45:00,
2013-01-18 11:50:00,14.2,-0.2,30.29,NNW,330,13.0,15.0,52,0.00,,,0.00,meteohub,2013-01-18 16:50:00,
2013-01-18 11:55:00,14.4,0.0,30.29,NW,322,8.0,15.0,52,0.00,,,0.00,meteohub,2013-01-18 16:55:00,
2013-01-18 12:00:00,14.4,0.0,30.29,WNW,301,2.0,15.0,52,0.00,,,0.00,meteohub,2013-01-18 17:00:00,
2013-01-18 12:05:00,14.5,0.1,30.29,NW,322,6.0,14.0,52,0.00,,,0.00,meteohub,2013-01-18 17:05:00,
2013-01-18 12:10:00,14.5,0.1,30.26,NW,312,9.0,14.0,52,0.00,,,0.00,meteohub,2013-01-18 17:10:00,
2013-01-18 12:15:00,14.9,0.5,30.26,NW,324,6.0,15.0,52,0.00,,,0.00,meteohub,2013-01-18 17:15:00,
2013-01-18 12:20:00,14.9,0.5,30.26,WNW,286,9.0,15.0,52,0.00,,,0.00,meteohub,2013-01-18 17:20:00,
2013-01-18 12:25:00,15.1,0.7,30.29,NNW,329,4.0,15.0,52,0.00,,,0.00,meteohub,2013-01-18 17:25:00,
2013-01-18 12:30:00,15.4,1.0,30.29,SSE,162,3.0,17.0,52,0.00,,,0.00,meteohub,2013-01-18 17:30:00,
2013-01-18 12:35:00,15.4,1.0,30.29,NNW,340,13.0,17.0,52,0.00,,,0.00,meteohub,2013-01-18 17:35:00,
2013-01-18 12:40:00,15.6,0.7,30.29,WNW,291,6.0,17.0,51,0.00,,,0.00,meteohub,2013-01-18 17:40:00,
2013-01-18 12:45:00,15.6,0.7,30.29,NNW,342,4.0,15.0,51,0.00,,,0.00,meteohub,2013-01-18 17:45:00,
2013-01-18 12:50:00,15.8,1.2,30.29,WNW,297,3.0,15.0,52,0.00,,,0.00,meteohub,2013-01-18 17:50:00,
2013-01-18 12:55:00,15.8,0.9,30.29,NNW,343,8.0,12.0,51,0.00,,,0.00,meteohub,2013-01-18 17:55:00,
2013-01-18 13:00:00,16.0,1.0,30.29,NW,314,4.0,12.0,51,0.00,,,0.00,meteohub,2013-01-18 18:00:00,
2013-01-18 13:05:00,16.0,1.0,30.29,NNW,329,3.0,13.0,51,0.00,,,0.00,meteohub,2013-01-18 18:05:00,
2013-01-18 13:10:00,16.0,1.0,30.29,NW,315,8.0,13.0,51,0.00,,,0.00,meteohub,2013-01-18 18:10:00,
2013-01-18 13:15:00,16.2,1.2,30.29,NNW,344,3.0,8.0,51,0.00,,,0.00,meteohub,2013-01-18 18:15:00,
2013-01-18 13:20:00,15.8,0.5,30.29,NW,318,5.0,8.0,50,0.00,,,0.00,meteohub,2013-01-18 18:20:00,
2013-01-18 13:25:00,15.8,0.5,30.29,NW,321,15.0,15.0,50,0.00,,,0.00,meteohub,2013-01-18 18:25:00,
2013-01-18 13:30:00,15.8,0.5,30.29,East,81,0.0,13.0,50,0.00,,,0.00,meteohub,2013-01-18 18:30:00,
2013-01-18 13:35:00,15.8,0.5,30.29,SSE,149,6.0,15.0,50,0.00,,,0.00,meteohub,2013-01-18 18:35:00,
2013-01-18 13:40:00,15.8,0.5,30.29,NNW,332,4.0,15.0,50,0.00,,,0.00,meteohub,2013-01-18 18:40:00,
2013-01-18 13:45:00,15.8,0.5,30.29,WNW,301,3.0,10.0,50,0.00,,,0.00,meteohub,2013-01-18 18:45:00,
2013-01-18 13:50:00,16.0,0.7,30.29,NW,320,6.0,10.0,50,0.00,,,0.00,meteohub,2013-01-18 18:50:00,
2013-01-18 13:55:00,15.8,0.5,30.29,NNW,331,8.0,18.0,50,0.00,,,0.00,meteohub,2013-01-18 18:55:00,
2013-01-18 14:00:00,15.8,0.0,30.29,NW,304,10.0,18.0,49,0.00,,,0.00,meteohub,2013-01-18 19:00:00,
2013-01-18 14:05:00,15.8,0.0,30.29,NW,304,6.0,18.0,49,0.00,,,0.00,meteohub,2013-01-18 19:05:00,
2013-01-18 14:10:00,16.0,0.1,30.29,WNW,290,6.0,18.0,49,0.00,,,0.00,meteohub,2013-01-18 19:10:00,
2013-01-18 14:15:00,15.8,0.0,30.29,NNW,327,5.0,13.0,49,0.00,,,0.00,meteohub,2013-01-18 19:15:00,
2013-01-18 14:20:00,15.8,0.0,30.29,NW,308,4.0,13.0,49,0.00,,,0.00,meteohub,2013-01-18 19:20:00,
2013-01-18 14:25:00,15.8,0.0,30.29,NNW,341,8.0,15.0,49,0.00,,,0.00,meteohub,2013-01-18 19:25:00,
2013-01-18 14:30:00,15.8,0.0,30.29,West,273,4.0,15.0,49,0.00,,,0.00,meteohub,2013-01-18 19:30:00,
2013-01-18 14:35:00,16.0,0.1,30.29,WNW,286,6.0,16.0,49,0.00,,,0.00,meteohub,2013-01-18 19:35:00,
2013-01-18 14:40:00,16.0,0.1,30.32,NNW,328,4.0,16.0,49,0.00,,,0.00,meteohub,2013-01-18 19:40:00,
2013-01-18 14:45:00,16.0,0.1,30.32,WNW,291,5.0,16.0,49,0.00,,,0.00,meteohub,2013-01-18 19:45:00,
2013-01-18 14:50:00,15.8,0.0,30.32,NW,316,7.0,16.0,49,0.00,,,0.00,meteohub,2013-01-18 19:50:00,
2013-01-18 14:55:00,16.0,0.1,30.32,NW,314,5.0,11.0,49,0.00,,,0.00,meteohub,2013-01-18 19:55:00,
2013-01-18 15:00:00,16.0,0.1,30.32,WNW,302,4.0,11.0,49,0.00,,,0.00,meteohub,2013-01-18 20:00:00,
2013-01-18 15:05:00,15.8,0.0,30.32,WNW,302,6.0,8.0,49,0.00,,,0.00,meteohub,2013-01-18 20:05:00,
2013-01-18 15:10:00,15.8,0.0,30.32,WNW,291,3.0,8.0,49,0.00,,,0.00,meteohub,2013-01-18 20:10:00,
2013-01-18 15:15:00,15.8,0.5,30.32,WSW,238,0.0,8.0,50,0.00,,,0.00,meteohub,2013-01-18 20:15:00,
2013-01-18 15:20:00,15.8,0.5,30.29,NW,322,4.0,8.0,50,0.00,,,0.00,meteohub,2013-01-18 20:20:00,
2013-01-18 15:25:00,15.8,0.5,30.29,NNW,338,5.0,8.0,50,0.00,,,0.00,meteohub,2013-01-18 20:25:00,
2013-01-18 15:30:00,15.8,0.5,30.29,NW,324,3.0,8.0,50,0.00,,,0.00,meteohub,2013-01-18 20:30:00,
2013-01-18 15:35:00,15.8,0.5,30.29,NW,311,0.0,9.0,50,0.00,,,0.00,meteohub,2013-01-18 20:35:00,
2013-01-18 15:40:00,15.8,0.5,30.32,NW,310,3.0,9.0,50,0.00,,,0.00,meteohub,2013-01-18 20:40:00,
2013-01-18 15:45:00,15.8,0.9,30.32,WNW,283,4.0,8.0,51,0.00,,,0.00,meteohub,2013-01-18 20:45:00,
2013-01-18 15:50:00,15.8,0.9,30.32,WNW,286,3.0,8.0,51,0.00,,,0.00,meteohub,2013-01-18 20:50:00,
2013-01-18 15:55:00,15.8,0.9,30.32,NW,320,0.0,8.0,51,0.00,,,0.00,meteohub,2013-01-18 20:55:00,
2013-01-18 16:00:00,15.6,0.7,30.32,North,353,0.0,8.0,51,0.00,,,0.00,meteohub,2013-01-18 21:00:00,
2013-01-18 16:05:00,15.6,0.7,30.29,NW,314,8.0,9.0,51,0.00,,,0.00,meteohub,2013-01-18 21:05:00,
2013-01-18 16:10:00,15.4,1.0,30.29,NW,307,0.0,9.0,52,0.00,,,0.00,meteohub,2013-01-18 21:10:00,
2013-01-18 16:15:00,15.4,1.0,30.29,NW,322,4.0,8.0,52,0.00,,,0.00,meteohub,2013-01-18 21:15:00,
2013-01-18 16:20:00,15.4,1.0,30.29,NW,323,0.0,8.0,52,0.00,,,0.00,meteohub,2013-01-18 21:20:00,
2013-01-18 16:25:00,15.3,0.9,30.32,NW,323,0.0,5.0,52,0.00,,,0.00,meteohub,2013-01-18 21:25:00,
2013-01-18 16:30:00,15.3,1.2,30.32,NW,323,0.0,5.0,53,0.00,,,0.00,meteohub,2013-01-18 21:30:00,
2013-01-18 16:35:00,15.3,1.2,30.32,NW,309,0.0,4.0,53,0.00,,,0.00,meteohub,2013-01-18 21:35:00,
2013-01-18 16:40:00,15.3,1.2,30.32,NW,317,0.0,4.0,53,0.00,,,0.00,meteohub,2013-01-18 21:40:00,
2013-01-18 16:45:00,15.3,1.6,30.32,WNW,292,0.0,8.0,54,0.00,,,0.00,meteohub,2013-01-18 21:45:00,
2013-01-18 16:50:00,15.3,1.6,30.32,WNW,289,3.0,8.0,54,0.00,,,0.00,meteohub,2013-01-18 21:50:00,
2013-01-18 16:55:00,15.1,1.4,30.32,WNW,289,0.0,8.0,54,0.00,,,0.00,meteohub,2013-01-18 21:55:00,
2013-01-18 17:00:00,15.1,1.4,30.32,NW,305,0.0,6.0,54,0.00,,,0.00,meteohub,2013-01-18 22:00:00,
2013-01-18 17:05:00,15.1,1.4,30.32,WNW,287,0.0,6.0,54,0.00,,,0.00,meteohub,2013-01-18 22:05:00,
2013-01-18 17:10:00,15.1,1.4,30.32,WNW,287,0.0,6.0,54,0.00,,,0.00,meteohub,2013-01-18 22:10:00,
2013-01-18 17:15:00,15.1,1.4,30.32,WNW,287,0.0,4.0,54,0.00,,,0.00,meteohub,2013-01-18 22:15:00,
2013-01-18 17:20:00,15.1,1.4,30.32,WNW,287,0.0,4.0,54,0.00,,,0.00,meteohub,2013-01-18 22:20:00,
2013-01-18 17:25:00,15.1,1.4,30.32,WNW,287,0.0,0.0,54,0.00,,,0.00,meteohub,2013-01-18 22:25:00,
2013-01-18 17:30:00,14.9,1.2,30.32,NW,315,0.0,0.0,54,0.00,,,0.00,meteohub,2013-01-18 22:30:00,
2013-01-18 17:35:00,14.5,0.9,30.35,NW,313,0.0,0.0,54,0.00,,,0.00,meteohub,2013-01-18 22:35:00,
2013-01-18 17:40:00,14.7,1.0,30.35,NW,313,0.0,0.0,54,0.00,,,0.00,meteohub,2013-01-18 22:40:00,
2013-01-18 17:45:00,14.5,0.9,30.35,NW,313,0.0,4.0,54,0.00,,,0.00,meteohub,2013-01-18 22:45:00,
2013-01-18 17:50:00,14.4,0.7,30.35,NW,313,0.0,4.0,54,0.00,,,0.00,meteohub,2013-01-18 22:50:00,
2013-01-18 17:55:00,14.2,0.5,30.35,NW,313,0.0,0.0,54,0.00,,,0.00,meteohub,2013-01-18 22:55:00,
2013-01-18 18:00:00,14.2,0.5,30.35,NW,313,0.0,0.0,54,0.00,,,0.00,meteohub,2013-01-18 23:00:00,
2013-01-18 18:05:00,14.0,0.9,30.35,NW,313,0.0,0.0,55,0.00,,,0.00,meteohub,2013-01-18 23:05:00,
2013-01-18 18:10:00,13.8,0.7,30.35,NW,313,0.0,0.0,55,0.00,,,0.00,meteohub,2013-01-18 23:10:00,
2013-01-18 18:15:00,14.0,0.9,30.35,NW,313,0.0,0.0,55,0.00,,,0.00,meteohub,2013-01-18 23:15:00,
2013-01-18 18:20:00,14.2,0.5,30.32,NW,313,0.0,0.0,54,0.00,,,0.00,meteohub,2013-01-18 23:20:00,
2013-01-18 18:25:00,13.8,0.7,30.32,NW,313,0.0,0.0,55,0.00,,,0.00,meteohub,2013-01-18 23:25:00,
2013-01-18 18:30:00,13.8,0.7,30.32,NW,313,0.0,0.0,55,0.00,,,0.00,meteohub,2013-01-18 23:30:00,
2013-01-18 18:35:00,13.8,0.7,30.35,NW,313,0.0,0.0,55,0.00,,,0.00,meteohub,2013-01-18 23:35:00,
2013-01-18 18:40:00,13.6,0.5,30.35,NW,313,0.0,0.0,55,0.00,,,0.00,meteohub,2013-01-18 23:40:00,
2013-01-18 18:45:00,13.5,0.3,30.35,NW,313,0.0,0.0,55,0.00,,,0.00,meteohub,2013-01-18 23:45:00,
2013-01-18 18:50:00,13.5,0.3,30.35,NW,313,0.0,0.0,55,0.00,,,0.00,meteohub,2013-01-18 23:50:00,
2013-01-18 18:55:00,13.5,0.3,30.35,NW,313,0.0,0.0,55,0.00,,,0.00,meteohub,2013-01-18 23:55:00,
2013-01-18 19:00:00,13.3,0.1,30.35,NW,313,0.0,0.0,55,0.00,,,0.00,meteohub,2013-01-19 00:00:00,
2013-01-18 19:05:00,13.3,0.1,30.35,NW,313,0.0,0.0,55,0.00,,,0.00,meteohub,2013-01-19 00:05:00,
2013-01-18 19:10:00,13.3,0.1,30.35,NW,313,0.0,0.0,55,0.00,,,0.00,meteohub,2013-01-19 00:10:00,
2013-01-18 19:15:00,12.9,-0.2,30.35,NW,313,0.0,0.0,55,0.00,,,0.00,meteohub,2013-01-19 00:15:00,
2013-01-18 19:21:00,12.9,-0.2,30.35,NW,313,0.0,0.0,55,0.00,,,0.00,meteohub,2013-01-19 00:21:00,
2013-01-18 19:26:00,12.9,-0.2,30.35,NW,313,0.0,0.0,55,0.00,,,0.00,meteohub,2013-01-19 00:26:00,
2013-01-18 19:30:00,12.9,-0.2,30.35,NW,313,0.0,0.0,55,0.00,,,0.00,meteohub,2013-01-19 00:30:00,
2013-01-18 19:35:00,12.7,-0.4,30.35,NW,313,0.0,0.0,55,0.00,,,0.00,meteohub,2013-01-19 00:35:00,
2013-01-18 19:41:00,12.6,-0.6,30.35,NW,313,0.0,0.0,55,0.00,,,0.00,meteohub,2013-01-19 00:41:00,
2013-01-18 19:46:00,12.7,-0.4,30.35,NW,313,0.0,0.0,55,0.00,,,0.00,meteohub,2013-01-19 00:46:00,
2013-01-18 19:51:00,12.7,-0.4,30.35,NW,313,0.0,0.0,55,0.00,,,0.00,meteohub,2013-01-19 00:51:00,
2013-01-18 19:56:00,12.9,-0.2,30.35,NW,313,0.0,0.0,55,0.00,,,0.00,meteohub,2013-01-19 00:56:00,
2013-01-18 20:01:00,12.9,-0.2,30.35,NW,313,0.0,0.0,55,0.00,,,0.00,meteohub,2013-01-19 01:01:00,
2013-01-18 20:06:00,12.9,-0.2,30.35,NW,313,0.0,0.0,55,0.00,,,0.00,meteohub,2013-01-19 01:06:00,
2013-01-18 20:11:00,12.7,-0.4,30.35,NW,313,0.0,0.0,55,0.00,,,0.00,meteohub,2013-01-19 01:11:00,
2013-01-18 20:16:00,12.7,-0.4,30.35,NW,313,0.0,0.0,55,0.00,,,0.00,meteohub,2013-01-19 01:16:00,
2013-01-18 20:21:00,12.7,-0.4,30.35,NW,313,0.0,0.0,55,0.00,,,0.00,meteohub,2013-01-19 01:21:00,
2013-01-18 20:26:00,12.6,-0.6,30.35,NW,313,0.0,0.0,55,0.00,,,0.00,meteohub,2013-01-19 01:26:00,
2013-01-18 20:31:00,12.6,-0.6,30.35,NW,313,0.0,0.0,55,0.00,,,0.00,meteohub,2013-01-19 01:31:00,
2013-01-18 20:36:00,12.7,-0.4,30.35,NW,313,0.0,0.0,55,0.00,,,0.00,meteohub,2013-01-19 01:36:00,
2013-01-18 20:41:00,12.7,-0.4,30.35,NW,313,0.0,0.0,55,0.00,,,0.00,meteohub,2013-01-19 01:41:00,
2013-01-18 20:46:00,12.7,-0.4,30.35,NW,313,0.0,0.0,55,0.00,,,0.00,meteohub,2013-01-19 01:46:00,
2013-01-18 20:51:00,12.6,-0.6,30.35,NW,313,0.0,0.0,55,0.00,,,0.00,meteohub,2013-01-19 01:51:00,
2013-01-18 20:56:00,12.2,-0.9,30.35,NW,313,0.0,0.0,55,0.00,,,0.00,meteohub,2013-01-19 01:56:00,
2013-01-18 21:01:00,12.0,-1.1,30.35,NW,313,0.0,0.0,55,0.00,,,0.00,meteohub,2013-01-19 02:01:00,
2013-01-18 21:06:00,11.8,-1.3,30.35,NW,313,0.0,0.0,55,0.00,,,0.00,meteohub,2013-01-19 02:06:00,
2013-01-18 21:11:00,11.7,-1.3,30.35,NW,313,0.0,0.0,55,0.00,,,0.00,meteohub,2013-01-19 02:11:00,
2013-01-18 21:16:00,11.8,-1.3,30.35,NW,313,0.0,0.0,55,0.00,,,0.00,meteohub,2013-01-19 02:16:00,
2013-01-18 21:21:00,12.0,-1.1,30.32,NW,313,0.0,0.0,55,0.00,,,0.00,meteohub,2013-01-19 02:21:00,
2013-01-18 21:26:00,11.8,-1.3,30.32,NW,313,0.0,0.0,55,0.00,,,0.00,meteohub,2013-01-19 02:26:00,
2013-01-18 21:31:00,11.8,-1.3,30.32,NW,313,0.0,0.0,55,0.00,,,0.00,meteohub,2013-01-19 02:31:00,
2013-01-18 21:36:00,11.8,-1.3,30.32,NW,313,0.0,0.0,55,0.00,,,0.00,meteohub,2013-01-19 02:36:00,
2013-01-18 21:42:00,11.8,-1.3,30.32,NW,313,0.0,0.0,55,0.00,,,0.00,meteohub,2013-01-19 02:42:00,
2013-01-18 21:47:00,11.8,-1.3,30.32,NW,313,0.0,0.0,55,0.00,,,0.00,meteohub,2013-01-19 02:47:00,
2013-01-18 21:52:00,11.8,-1.3,30.32,NW,313,0.0,0.0,55,0.00,,,0.00,meteohub,2013-01-19 02:52:00,
2013-01-18 21:57:00,12.0,-1.1,30.32,NW,313,0.0,0.0,55,0.00,,,0.00,meteohub,2013-01-19 02:57:00,
2013-01-18 22:02:00,11.8,-1.3,30.32,NW,313,0.0,0.0,55,0.00,,,0.00,meteohub,2013-01-19 03:02:00,
2013-01-18 22:07:00,11.8,-1.3,30.32,NW,313,0.0,0.0,55,0.00,,,0.00,meteohub,2013-01-19 03:07:00,
2013-01-18 22:12:00,11.8,-1.3,30.32,NW,313,0.0,0.0,55,0.00,,,0.00,meteohub,2013-01-19 03:12:00,
2013-01-18 22:17:00,11.8,-1.3,30.32,NW,313,0.0,0.0,55,0.00,,,0.00,meteohub,2013-01-19 03:17:00,
2013-01-18 22:22:00,11.8,-1.3,30.32,NW,313,0.0,0.0,55,0.00,,,0.00,meteohub,2013-01-19 03:22:00,
2013-01-18 22:27:00,12.0,-1.1,30.32,NW,313,0.0,0.0,55,0.00,,,0.00,meteohub,2013-01-19 03:27:00,
2013-01-18 22:32:00,12.0,-1.1,30.32,NW,313,0.0,0.0,55,0.00,,,0.00,meteohub,2013-01-19 03:32:00,
2013-01-18 22:37:00,12.0,-1.1,30.32,NW,313,0.0,0.0,55,0.00,,,0.00,meteohub,2013-01-19 03:37:00,
2013-01-18 22:42:00,12.2,-0.9,30.32,NW,313,0.0,0.0,55,0.00,,,0.00,meteohub,2013-01-19 03:42:00,
2013-01-18 22:47:00,12.0,-1.1,30.32,NW,313,0.0,0.0,55,0.00,,,0.00,meteohub,2013-01-19 03:47:00,
2013-01-18 22:52:00,12.0,-1.1,30.29,NW,313,0.0,0.0,55,0.00,,,0.00,meteohub,2013-01-19 03:52:00,
2013-01-18 22:57:00,11.8,-1.3,30.29,NW,313,0.0,0.0,55,0.00,,,0.00,meteohub,2013-01-19 03:57:00,
2013-01-18 23:02:00,11.8,-1.3,30.29,NW,313,0.0,0.0,55,0.00,,,0.00,meteohub,2013-01-19 04:02:00,
2013-01-18 23:07:00,12.0,-1.1,30.29,NW,313,0.0,0.0,55,0.00,,,0.00,meteohub,2013-01-19 04:07:00,
2013-01-18 23:12:00,12.0,-1.1,30.29,NW,313,0.0,0.0,55,0.00,,,0.00,meteohub,2013-01-19 04:12:00,
2013-01-18 23:17:00,12.2,-0.9,30.29,NW,313,0.0,0.0,55,0.00,,,0.00,meteohub,2013-01-19 04:17:00,
2013-01-18 23:22:00,12.4,-0.8,30.29,NW,313,0.0,0.0,55,0.00,,,0.00,meteohub,2013-01-19 04:22:00,
2013-01-18 23:27:00,12.6,-0.6,30.29,NW,313,0.0,0.0,55,0.00,,,0.00,meteohub,2013-01-19 04:27:00,
2013-01-18 23:32:00,12.6,-0.6,30.29,NW,313,0.0,0.0,55,0.00,,,0.00,meteohub,2013-01-19 04:32:00,
2013-01-18 23:37:00,12.6,-0.6,30.29,NW,313,0.0,0.0,55,0.00,,,0.00,meteohub,2013-01-19 04:37:00,
2013-01-18 23:42:00,12.7,-0.4,30.29,NW,313,0.0,0.0,55,0.00,,,0.00,meteohub,2013-01-19 04:42:00,
2013-01-18 23:47:00,12.7,-0.4,30.29,NW,313,0.0,0.0,55,0.00,,,0.00,meteohub,2013-01-19 04:47:00,
2013-01-18 23:52:00,12.9,-0.2,30.29,SW,221,0.0,0.0,55,0.00,,,0.00,meteohub,2013-01-19 04:52:00,
2013-01-18 23:57:00,13.3,0.1,30.29,NNE,24,3.0,0.0,55,0.00,,,0.00,meteohub,2013-01-19 04:57:00,